You are not logged in, Click here to log in
ICAO: RJOA Country: 日本廣島縣三原市
Latitude: 34.4399 Longitude: 132.919
Total Arrivals: 36 Total Departures: 27
Latest Arrival: FS05 (ZSSS-RJOA)CHU. CHUHAO Latest Departure: 3KCI11 (RJOA-RJFK)Jason. Li
Scenery:
METAR : RJOA 151300Z 36010KT 9999 FEW030 SCT050 24/18 Q1008

広島空港HIJ